Theta_e
325 325 325 325 325 326 324 324 325 325 323 322 321 320 315 310 309 310 310 310 319 319 319 318 311 307 304 303 302 302 303 303 303 303 304 304 304 304 305 305 304 304 304
327 326 325 325 324 325 324 324 325 323 321 321 321 320 318 318 315 309 309 311 314 317 320 319 313 306 303 303 302 302 303 303 303 304 304 305 305 306 306 306 305 305 304
325 325 325 326 325 326 324 324 323 321 321 321 321 320 320 320 318 315 311 310 313 315 317 317 312 307 304 303 302 303 303 303 304 304 304 305 306 306 306 306 305 305 305
326 325 325 325 325 326 325 323 322 321 321 321 321 320 320 320 319 317 313 311 311 313 310 314 311 306 305 305 305 305 304 304 304 304 305 306 306 306 306 306 306 305 305
327 326 326 326 325 326 324 323 321 321 321 321 321 321 321 320 320 319 316 313 312 310 308 306 306 306 306 307 307 306 306 307 307 307 307 307 306 306 307 307 306 307 307
325 327 326 326 325 324 323 323 320 320 321 320 321 321 321 320 320 319 317 313 312 311 310 307 306 307 307 308 308 308 308 308 308 309 308 308 308 307 307 308 307 308 307
325 325 325 326 326 324 321 322 320 319 320 320 322 321 320 320 319 319 317 316 313 311 310 309 308 308 308 308 310 312 313 314 313 312 311 310 310 309 309 309 309 309 310
324 325 325 325 326 322 319 320 318 319 319 321 322 321 320 319 318 319 319 319 316 314 313 312 312 313 313 314 314 314 314 314 316 315 314 315 314 313 312 312 311 311 311
325 325 326 326 324 317 313 313 317 319 319 321 321 321 320 320 319 319 319 320 320 319 319 318 318 317 315 314 314 314 315 314 315 317 318 318 318 317 318 317 317 316 314
322 321 319 318 321 312 312 312 318 320 319 320 321 321 320 320 320 320 320 320 320 319 319 316 314 315 317 317 316 315 315 315 315 315 315 315 315 315 315 316 316 316 315
324 322 318 318 319 310 310 309 317 319 319 320 320 320 320 320 319 319 320 320 319 319 319 312 311 312 316 316 316 315 314 314 314 314 314 315 315 315 315 315 316 316 316
325 324 324 320 317 310 311 309 311 311 319 319 318 316 318 320 320 318 318 317 316 316 312 312 314 314 316 316 316 315 315 315 315 315 315 315 315 315 315 315 315 315 315
325 324 325 322 321 315 313 310 309 310 317 317 317 318 319 319 320 319 318 317 314 314 315 314 314 315 317 318 317 318 317 317 317 317 317 317 317 317 316 317 316 316 315
323 323 325 324 324 316 314 315 314 317 319 319 319 318 319 319 319 318 318 318 317 315 315 315 314 315 315 316 316 318 318 317 317 318 318 317 317 317 317 317 317 317 316
321 324 323 323 322 321 319 317 315 316 318 319 320 319 320 319 318 318 317 318 318 316 315 315 315 315 315 316 316 317 317 317 317 317 317 316 316 315 316 316 317 318 317
321 321 322 322 322 321 320 320 318 317 319 318 319 318 319 318 318 317 318 317 316 316 315 315 315 317 317 317 317 317 316 317 317 317 317 317 317 316 316 316 316 316 318
321 321 320 321 323 322 321 321 322 321 320 320 320 320 319 319 319 317 317 317 315 315 315 316 316 316 316 317 316 317 317 317 317 317 317 317 317 317 317 316 316 316 317
320 320 319 320 321 322 321 321 321 321 321 321 321 318 318 317 317 316 316 317 317 317 317 317 315 316 316 317 316 316 316 317 317 317 317 317 317 316 317 317 317 317 317
319 320 320 320 320 321 321 320 320 320 320 320 319 318 318 317 316 317 318 318 317 315 314 315 315 317 318 317 317 317 316 317 317 317 317 317 317 315 317 318 317 317 318
319 319 319 320 320 320 320 319 319 319 319 319 319 318 318 318 317 317 317 317 316 317 317 317 318 318 318 318 317 317 317 317 316 317 317 318 318 317 317 318 318 318 319
322 321 320 319 319 319 319 319 319 319 319 319 319 319 318 318 317 317 317 317 318 318 318 318 318 317 317 317 317 317 316 317 317 317 318 318 317 317 317 317 318 317 317
321 321 322 322 322 320 320 319 319 319 318 318 318 319 319 319 319 319 319 318 318 318 318 317 317 317 317 317 317 317 317 317 317 317 317 317 316 316 317 317 318 317 317
319 319 320 321 322 321 321 321 321 321 320 319 319 319 318 318 318 318 318 318 319 319 319 319 318 318 318 317 317 317 317 317 317 317 317 317 317 317 316 316 315 314 313
320 320 319 320 320 320 320 320 321 321 321 321 321 320 318 318 318 318 318 319 319 320 319 319 319 317 316 316 316 316 317 317 317 317 316 314 312 309 308 306 302 301 299
315 317 317 318 318 319 319 320 320 320 320 319 318 317 318 318 318 318 318 318 316 316 316 318 318 315 313 314 315 313 312 311 309 306 304 301 300 299 297 296 295 293 293
311 311 311 311 311 311 312 315 316 316 316 316 314 312 311 311 312 316 314 315 313 310 308 304 301 301 301 300 300 300 301 299 299 297 295 295 294 293 292 291 291 291 291
Wind_Speed
30 36 34 34 33 30 38 37 35 31 27 25 21 15 12 13 14 16 16 18 20 18 18 18 17 15 14 13 12 12 12 11 10 9 8 7 7 6 5 4 4 4 4
35 39 37 37 34 32 38 38 35 31 27 25 21 17 13 12 11 13 14 17 19 19 18 17 16 14 13 12 11 11 10 10 8 7 7 6 5 4 4 3 3 4 4
37 34 34 37 36 34 38 40 35 31 27 27 24 18 16 13 11 12 14 15 17 18 17 16 15 14 12 12 11 10 9 8 8 7 6 6 6 5 4 4 4 5 4
41 39 32 35 41 37 41 42 37 32 32 30 25 22 19 15 12 11 13 13 15 17 16 16 14 13 12 11 10 9 9 9 8 7 7 7 6 6 5 5 6 6 6
44 41 39 42 44 39 44 45 40 36 34 29 23 22 20 17 13 11 11 14 14 15 15 14 14 13 11 11 10 10 10 9 8 8 8 8 8 7 8 8 8 8 8
36 34 44 42 43 38 48 46 41 38 35 29 24 25 21 18 15 11 11 13 14 15 15 16 16 15 13 12 11 11 11 10 11 10 10 11 10 10 11 11 11 10 11
34 47 39 37 41 38 48 47 43 38 34 29 27 27 22 20 19 16 12 11 13 13 14 16 16 16 15 14 13 13 14 13 13 12 13 15 13 12 13 13 13 14 15
34 47 43 41 40 40 47 48 46 41 35 31 32 29 23 21 23 20 17 15 13 12 12 12 14 15 16 17 17 17 16 16 17 17 15 14 13 13 13 15 16 17 18
32 32 31 34 36 38 43 46 48 45 38 35 32 24 15 11 25 24 23 19 17 15 13 13 15 17 18 19 20 20 20 19 19 18 19 20 20 20 19 19 19 19 21
21 30 28 26 29 35 41 44 48 46 42 38 32 31 24 16 19 14 26 24 22 21 18 17 19 20 22 23 22 23 23 22 22 22 23 23 25 25 26 26 25 25 27
25 30 39 33 30 35 39 41 47 46 42 38 38 33 26 22 18 19 21 29 27 26 23 19 23 24 28 28 28 27 27 26 26 26 25 26 27 28 29 29 29 29 29
23 29 38 40 36 33 35 38 41 42 43 39 35 36 36 32 25 22 19 20 30 26 22 22 32 29 29 31 32 31 30 29 28 28 27 27 28 29 30 32 33 34 35
23 34 35 40 41 42 41 35 35 36 44 41 38 37 37 35 33 28 25 22 21 22 22 17 23 31 27 26 27 26 28 26 28 29 29 30 31 31 31 32 34 37 38
24 27 41 38 43 44 43 41 43 43 41 41 36 37 39 40 35 33 31 30 27 27 25 30 29 33 37 34 32 26 30 32 31 30 29 30 31 34 37 39 39 37 37
21 20 19 23 25 33 40 44 44 46 43 41 40 40 42 39 39 37 35 37 37 33 34 36 32 36 38 40 38 35 35 35 34 35 34 33 34 38 38 40 44 46 44
19 22 22 23 27 30 33 37 42 49 43 45 44 42 42 40 44 40 41 38 36 42 42 37 37 36 36 40 36 44 46 45 44 42 41 42 44 44 44 45 45 46 48
18 21 24 26 27 30 30 31 34 39 43 44 43 42 38 38 41 41 41 44 43 43 46 46 44 49 51 51 48 43 44 42 42 42 45 48 49 51 52 51 49 47 46
13 15 16 21 25 33 32 32 32 33 38 38 37 37 38 35 38 40 45 45 47 47 47 50 55 55 59 57 52 51 52 52 52 53 54 53 52 53 53 51 50 48 49
15 16 19 20 23 27 32 36 35 36 37 37 38 40 41 40 42 45 49 51 51 52 57 60 60 56 58 57 59 57 60 60 59 57 56 56 58 55 52 50 49 47 45
13 17 20 23 25 27 29 32 36 39 42 45 46 48 49 51 51 52 53 55 58 57 57 58 55 58 61 61 58 59 56 57 59 57 52 51 47 48 46 44 43 44 45
13 14 17 18 23 27 31 32 34 37 38 40 42 44 48 50 52 54 54 54 53 54 54 53 50 49 52 53 52 51 51 52 54 53 56 55 51 52 51 46 44 40 41
17 18 20 21 24 27 29 30 32 36 39 41 44 45 47 49 51 53 55 57 56 54 53 53 54 54 53 55 55 52 52 50 52 48 46 49 50 48 49 51 53 51 45
19 21 24 25 23 25 32 33 35 37 38 41 40 41 45 47 48 50 50 50 51 51 54 56 58 59 59 57 54 53 53 53 55 49 49 54 54 54 53 49 47 47 44
19 21 23 25 26 33 37 40 39 36 36 39 41 45 44 44 43 46 50 52 51 50 56 55 57 61 56 54 48 46 44 45 47 47 44 41 40 33 34 31 27 23 20
10 11 17 20 22 27 33 38 38 36 36 40 43 42 44 47 50 51 49 44 38 41 49 56 57 55 57 60 66 64 62 57 51 45 36 23 19 17 15 13 13 11 12
4 4 5 6 9 13 19 27 29 27 24 29 29 29 32 37 41 47 44 45 42 34 29 28 18 22 25 20 15 16 17 17 17 14 7 7 9 10 6 8 8 10 10
Wind_Direction
206 188 200 193 197 195 195 190 189 187 189 186 178 182 172 168 173 180 174 165 167 169 169 168 172 169 162 160 155 155 154 153 153 153 152 147 147 147 143 141 145 142 156
198 205 206 202 199 199 196 196 191 189 190 189 182 179 168 159 164 178 180 170 172 170 175 177 175 170 167 163 167 168 165 166 170 173 169 164 168 167 165 172 185 189 171
200 195 197 206 203 199 198 196 193 193 192 188 188 180 177 175 170 180 184 180 180 180 181 185 183 178 174 175 180 181 182 186 186 186 187 188 193 204 205 199 208 207 193
203 212 222 222 208 201 198 196 195 194 190 190 189 185 185 185 179 182 189 195 194 193 189 192 191 187 185 186 189 194 193 200 201 199 201 204 213 220 224 222 228 220 224
220 223 223 223 202 200 198 198 195 194 187 188 188 191 189 189 188 192 199 202 205 206 202 197 197 199 199 197 199 206 211 209 214 214 222 227 223 228 235 227 230 236 241
220 206 204 204 201 197 197 198 195 192 193 193 192 190 192 194 194 203 207 208 211 211 210 207 206 208 211 210 211 217 225 227 229 231 235 239 234 232 240 243 239 248 249
214 206 209 207 204 201 197 198 195 193 192 196 192 187 194 202 201 206 208 207 213 212 215 215 219 223 223 222 225 233 240 243 249 247 244 244 243 243 247 252 251 257 258
211 210 207 214 205 202 197 200 199 190 194 192 190 185 192 205 206 210 209 212 208 206 212 225 232 236 236 238 241 245 246 246 245 251 260 263 261 255 257 261 258 261 263
182 186 193 201 200 203 197 198 198 197 192 190 194 189 170 200 205 212 214 212 214 216 215 233 242 248 251 252 252 255 254 255 257 256 260 269 271 274 269 267 267 269 271
169 183 186 195 211 207 202 200 199 203 206 197 196 207 210 211 193 207 220 217 220 223 225 230 242 252 260 259 260 262 263 262 261 262 263 263 266 271 271 273 273 273 274
196 195 187 204 211 207 206 205 202 204 210 211 208 208 217 216 218 213 216 220 224 228 232 233 243 252 261 264 264 265 266 265 264 264 264 263 264 266 270 274 276 277 277
213 213 210 203 201 207 208 210 209 210 208 216 221 225 223 218 221 225 228 232 228 233 232 235 256 271 274 268 267 268 268 268 265 264 264 265 264 265 268 271 273 276 279
221 217 216 203 206 196 202 206 211 217 217 219 228 229 230 233 236 236 241 232 227 238 239 245 262 263 271 272 267 273 268 267 266 267 266 266 266 267 269 273 274 274 276
235 217 213 209 205 200 206 207 210 214 222 221 230 236 235 237 235 235 243 237 243 248 241 250 260 263 271 273 276 271 267 271 269 264 264 266 267 270 272 270 270 274 278
225 214 207 210 207 208 215 214 215 219 228 227 234 236 236 238 245 240 240 249 252 249 246 256 252 261 267 270 272 270 271 273 268 268 266 268 271 276 277 277 274 272 272
220 230 231 234 238 225 223 226 223 225 228 235 238 243 248 246 242 247 247 249 252 257 259 260 263 264 266 282 286 267 268 270 272 270 267 269 273 276 278 278 277 274 272
220 226 229 234 233 232 231 235 233 235 237 241 243 244 248 249 244 247 249 252 251 253 259 263 265 272 271 279 285 284 270 271 276 271 274 276 277 278 279 280 278 274 269
246 237 230 229 233 232 232 237 240 243 244 246 245 243 245 243 243 245 248 252 255 258 261 263 270 268 269 272 278 280 279 274 272 272 276 276 278 280 279 276 275 274 273
249 249 245 240 238 242 245 245 245 247 250 249 249 252 256 255 254 255 255 256 257 261 262 261 263 265 271 275 278 279 279 276 275 278 279 278 279 282 279 274 271 271 267
257 256 256 256 255 253 253 254 256 256 258 258 260 263 264 262 261 262 261 262 267 268 267 267 266 270 275 277 278 278 278 280 278 280 283 284 285 282 280 274 272 266 264
269 266 261 259 257 260 260 260 261 263 264 264 265 265 265 265 265 265 267 269 269 269 269 265 263 266 268 268 266 270 270 275 280 285 287 285 286 282 281 278 278 278 272
268 267 269 268 265 260 261 263 264 264 266 267 267 268 268 268 268 269 270 269 269 264 262 262 265 265 261 263 269 267 269 267 269 276 277 279 279 279 278 279 285 282 276
255 256 263 271 276 277 269 266 264 263 264 265 270 274 273 273 274 274 273 272 272 272 269 269 264 264 267 266 265 264 264 266 268 267 266 270 270 268 269 266 265 266 261
253 253 253 254 252 251 258 260 262 265 269 270 273 272 267 267 266 265 269 275 277 276 268 266 264 261 257 257 254 256 256 258 258 258 259 254 254 254 256 256 259 251 242
260 259 259 258 255 255 257 261 264 262 259 255 254 255 258 260 259 257 259 257 255 254 257 262 259 254 256 259 259 260 260 262 262 265 267 262 259 247 236 221 206 204 210
351 338 314 304 289 280 281 277 278 283 280 265 261 259 267 269 268 264 272 267 268 269 269 271 279 260 268 295 312 300 286 281 253 235 255 220 185 187 173 183 187 212 224